Stations météo

réclame
Mon MeteoGroup
Greifswalder Oie, Allemagne (10097): Température de l'air & dewpoint: 11.02.2019 15:00:00 - 17.02.2019 15:00:00 (CET)Greifswalder Oie, Allemagne (10097): Température de l'air 5cm & Température de l'air -5cm: 11.02.2019 15:00:00 - 17.02.2019 15:00:00 (CET)Greifswalder Oie, Allemagne (10097): Température de l'air -20cm & Température de l'air -100cm: 11.02.2019 15:00:00 - 17.02.2019 15:00:00 (CET)Greifswalder Oie, Allemagne (10097): water temperature: 11.02.2019 15:00:00 - 17.02.2019 15:00:00 (CET)Greifswalder Oie, Allemagne (10097): Vitesse du vent & gusts: 11.02.2019 15:00:00 - 17.02.2019 15:00:00 (CET)Greifswalder Oie, Allemagne (10097): Direction du vent: 11.02.2019 15:00:00 - 17.02.2019 15:00:00 (CET)Greifswalder Oie, Allemagne (10097): reduced air pressure: 11.02.2019 15:00:00 - 17.02.2019 15:00:00 (CET)Greifswalder Oie, Allemagne (10097): visibility: 11.02.2019 15:00:00 - 17.02.2019 15:00:00 (CET)Greifswalder Oie, Allemagne (10097): Ensoleillement: 11.02.2019 15:00:00 - 17.02.2019 15:00:00 (CET)Greifswalder Oie, Allemagne (10097): Quantités de précipitations: 11.02.2019 15:00:00 - 17.02.2019 15:00:00 (CET)
Date & Time tt [°C] td [°C] tt 5cm [°C] tt -5cm [°C] tt -20cm [°C] tt -100cm [°C] tw [°C] ff [km/h] ff [knt] fx [km/h] fx [knt] dd ppp [hPa] vv [km] sd [min] rr [mm]
17.02.2019 15:00:00 6,9 5,0 7,3 6,8 5,1 5,0 3,8 14 7 21 12 SW 1023,6 9 11 0,0
17.02.2019 14:00:00 7,3 4,9 9,0 6,4 4,9 5,0 3,7 20 11 22 12 SW 1023,8 10 13 0,0
17.02.2019 13:00:00 6,1 4,4 6,8 6,2 4,8 5,0 3,6 18 10 25 14 WSW 1024,0 8 0 0,0
17.02.2019 12:00:00 6,6 4,4 7,0 5,9 4,6 5,0 3,5 19 10 21 11 WSW 1024,2 9 0 0,0
17.02.2019 11:00:00 6,0 4,0 6,5 5,5 4,5 5,0 3,4 17 9 22 12 SW 1024,2 7 0 0,0
17.02.2019 10:00:00 5,9 4,0 6,2 5,1 4,4 5,0 3,3 19 11 23 12 SW 1023,9 7 0 0,0
17.02.2019 09:00:00 5,9 3,8 6,0 4,7 4,4 5,0 3,3 21 12 28 15 WSW 1023,8 7 0 0,0
17.02.2019 08:00:00 5,8 3,9 5,6 4,4 4,4 5,0 3,2 19 11 26 14 WSW 1023,5 7 0 0,0
17.02.2019 07:00:00 5,7 3,9 5,2 4,3 4,3 4,9 3,2 24 13 27 15 WSW 1023,0 7 0 0,0
17.02.2019 06:00:00 5,9 3,9 5,4 4,4 4,3 4,9 3,2 24 13 29 15 WSW 1022,7 8 0 0,0
17.02.2019 05:00:00 5,8 4,0 5,5 4,3 4,3 4,9 3,2 21 11 24 13 WSW 1023,0 7 0 0,0
17.02.2019 04:00:00 5,7 3,6 5,1 4,4 4,3 4,9 3,2 22 12 31 17 WSW 1022,7 8 0 0,0
17.02.2019 03:00:00 6,0 3,3 5,8 4,3 4,3 4,9 3,1 28 15 32 17 WSW 1022,8 9 0 0,0
17.02.2019 02:00:00 5,7 2,6 5,5 4,2 4,3 4,9 3,1 20 11 29 15 WSW 1023,0 11 0 0,0
17.02.2019 01:00:00 5,5 2,4 5,4 4,0 4,3 4,9 3,1 17 9 27 14 WSW 1022,7 11 0 0,0
17.02.2019 00:00:00 6,0 2,3 5,6 3,7 4,3 4,9 3,0 15 8 30 16 WSW 1022,8 13 0 0,0
16.02.2019 23:00:00 6,3 2,0 5,3 3,8 4,4 4,9 3,1 27 15 39 21 WSW 1022,4 16 0 0,0
16.02.2019 22:00:00 6,6 1,9 5,5 3,8 4,5 4,9 3,1 31 17 37 20 WSW 1022,3 20 0 0,0
16.02.2019 21:00:00 6,6 2,0 5,4 3,8 4,7 4,9 3,6 29 16 33 18 WSW 1022,2 24 0 0,0
16.02.2019 20:00:00 5,7 2,1 4,5 4,0 4,8 4,9 3,8 22 12 24 13 WSW 1022,3 23 0 0,0
16.02.2019 19:00:00 6,1 2,1 4,5 4,4 5,0 4,9 3,9 17 9 29 16 SW 1022,3 23 0 0,0
16.02.2019 18:00:00 7,2 2,1 5,7 5,1 5,1 4,9 4,4 30 16 35 19 WSW 1021,6 28 0 0,0
16.02.2019 17:00:00 6,7 2,2 5,9 6,1 5,0 4,9 4,6 28 15 29 16 WSW 1021,4 24 14 0,0
16.02.2019 16:00:00 7,7 2,3 7,5 7,4 4,8 4,9 4,6 25 14 32 18 SW 1021,4 31 60 0,0
16.02.2019 15:00:00 8,4 2,1 9,5 7,9 4,5 4,9 4,2 28 15 31 17 WSW 1021,7 20 60 0,0
16.02.2019 14:00:00 8,2 2,0 9,7 7,5 4,0 4,9 4,0 28 15 32 18 WSW 1022,1 12 60 0,0
16.02.2019 13:00:00 7,6 1,8 9,0 7,0 3,6 4,9 3,6 19 10 32 18 WSW 1022,4 14 60 0,0
16.02.2019 12:00:00 6,6 1,5 7,5 5,8 3,2 4,9 3,2 24 13 32 17 WSW 1023,1 15 60 0,0
16.02.2019 11:00:00 6,4 0,9 6,4 4,2 2,9 4,9 2,9 26 14 29 16 SW 1023,1 15 60 0,0
16.02.2019 10:00:00 5,5 0,5 5,3 2,7 2,8 4,9 2,6 19 10 27 15 SSW 1023,6 19 60 0,0
16.02.2019 09:00:00 4,3 0,5 3,6 2,0 2,8 4,9 2,6 23 12 27 15 SSW 1023,9 14 60 0,0
16.02.2019 08:00:00 3,9 0,1 2,5 1,4 2,9 4,9 2,5 24 13 29 16 S 1024,1 24 19 0,0
16.02.2019 07:00:00 3,8 0,4 2,4 1,4 3,0 4,9 2,4 22 12 29 16 S 1024,2 24 0 0,0
16.02.2019 06:00:00 4,2 0,3 2,6 1,3 3,1 4,9 2,5 23 13 29 15 SSW 1024,7 27 0 0,0
16.02.2019 05:00:00 3,3 0,1 0,8 1,3 3,2 4,9 2,6 14 7 22 12 S 1025,4 26 0 0,0
16.02.2019 04:00:00 3,9 0,1 1,9 1,4 3,3 4,9 2,7 14 7 19 11 S 1026,0 27 0 0,0
16.02.2019 03:00:00 3,9 0,0 1,5 1,7 3,5 4,9 2,7 14 8 23 12 S 1026,8 25 0 0,0
16.02.2019 02:00:00 4,4 0,3 2,5 1,8 3,6 4,9 2,6 17 9 22 12 S 1027,5 23 0 0,0
16.02.2019 01:00:00 4,9 -0,2 3,0 2,1 3,7 4,9 2,7 18 10 22 12 S 1028,0 26 0 0,0
16.02.2019 00:00:00 5,2 -0,6 3,3 2,2 3,9 4,9 2,7 20 11 22 12 SSW 1028,5 25 0 0,0
15.02.2019 23:00:00 6,2 -0,8 3,9 2,5 4,0 4,9 2,9 18 10 21 11 S 1028,7 26 0 0,0
15.02.2019 22:00:00 6,1 0,5 3,9 2,7 4,2 4,9 2,9 18 10 21 11 SSW 1029,2 19 0 0,0
15.02.2019 21:00:00 5,8 1,4 3,5 2,9 4,4 4,9 3,0 17 9 18 10 S 1029,5 15 0 0,0
15.02.2019 20:00:00 6,2 1,8 3,7 3,2 4,5 4,9 3,1 14 8 17 9 S 1029,9 15 0 0,0
15.02.2019 19:00:00 7,3 1,1 4,5 3,7 4,7 4,9 3,2 16 9 18 10 SSW 1030,6 20 0 0,0
15.02.2019 18:00:00 8,1 1,7 4,8 4,3 4,8 4,9 3,0 14 8 16 8 SSW 1030,7 17 14 0,0
15.02.2019 17:00:00 5,6 2,2 4,6 5,8 4,7 4,9 3,2 14 7 21 11 SW 1030,8 9 60 0,0
15.02.2019 16:00:00 5,8 2,3 6,4 6,8 4,5 4,9 3,3 15 8 18 10 WSW 1031,1 7 60 0,0
15.02.2019 15:00:00 5,5 2,1 7,0 6,8 4,2 4,9 3,5 14 8 20 11 WSW 1031,7 6 60 0,0
15.02.2019 14:00:00 3,5 2,6 5,2 5,6 4,0 4,9 3,4 14 7 27 15 WSW 1032,1 2,7 32 0,0
15.02.2019 13:00:00 2,3 2,0 3,0 4,6 3,9 4,9 3,2 19 10 29 16 W 1032,5 0,2 0 0,0
15.02.2019 12:00:00 2,0 1,7 2,8 4,2 3,8 4,8 2,9 22 12 28 15 WSW 1033,2 0,5 0 0,0
15.02.2019 11:00:00 1,7 1,2 2,2 3,7 3,8 4,8 2,9 22 12 28 15 W 1033,2 1,1 0 0,0
15.02.2019 10:00:00 2,1 1,4 2,5 3,3 3,8 4,8 2,9 20 11 27 15 W 1033,4 2,6 0 0,0
15.02.2019 09:00:00 2,5 1,9 2,5 3,1 3,8 4,8 2,9 19 11 27 15 W 1033,3 3,5 0 0,0
15.02.2019 08:00:00 2,8 2,0 2,7 3,1 3,8 4,8 2,9 21 12 28 15 W 1032,9 3,3 0 0,0
15.02.2019 07:00:00 3,0 2,4 2,9 3,2 3,8 4,8 2,9 19 11 32 17 WNW 1032,6 2,5 0 0,0
15.02.2019 06:00:00 3,0 2,9 2,9 3,3 3,9 4,8 2,9 25 13 30 16 WNW 1032,5 2,9 0 0,0
15.02.2019 05:00:00 3,2 2,7 3,1 3,3 3,9 4,8 2,9 18 10 25 13 WNW 1032,6 2,1 0 0,0
15.02.2019 04:00:00 3,1 2,5 3,1 3,3 3,9 4,8 2,9 19 11 27 15 WNW 1032,8 2,1 0 0,0
15.02.2019 03:00:00 3,2 2,7 3,1 3,3 3,9 4,8 2,8 24 13 29 15 WNW 1032,7 2,2 0 0,0
15.02.2019 02:00:00 3,3 2,9 3,2 3,3 3,9 4,8 2,8 26 14 35 19 WNW 1032,8 2,1 0 0,0
15.02.2019 01:00:00 3,4 2,8 3,2 3,2 3,9 4,8 2,8 29 16 38 21 NW 1032,6 1,5 0 0,0
15.02.2019 00:00:00 3,7 3,0 3,5 2,9 4,0 4,8 2,7 22 12 29 15 WNW 1032,4 2,0 0 0,0
14.02.2019 23:00:00 3,6 2,7 2,7 2,6 4,1 4,8 2,7 22 12 28 15 W 1032,3 2,2 0 0,0
14.02.2019 22:00:00 3,7 3,0 2,5 2,5 4,3 4,8 2,7 16 8 19 10 SW 1032,2 2,6 0 0,0
14.02.2019 21:00:00 4,1 3,2 2,7 2,6 4,6 4,8 2,4 17 9 18 10 SW 1032,3 3,3 0 0,0
14.02.2019 20:00:00 3,3 2,8 -1,0 2,7 4,9 4,7 3,0 6 3 11 6 SW 1032,8 2,3 0 0,0
14.02.2019 19:00:00 3,2 2,8 -2,0 3,3 5,1 4,7 3,0 3 2 5 3 SSE 1033,1 1,2 0 0,0
14.02.2019 18:00:00 3,7 3,2 -1,0 4,4 5,3 4,7 3,0 0 0 14 8 N 1033,1 2,2 0 0,0
14.02.2019 17:00:00 4,2 3,0 3,4 5,8 5,3 4,7 3,2 14 8 19 11 WNW 1032,7 3,0 43 0,0
14.02.2019 16:00:00 5,4 3,3 5,4 7,3 5,2 4,7 3,2 17 9 21 11 WSW 1032,6 4,6 59 0,0
14.02.2019 15:00:00 5,7 3,3 6,9 7,8 4,9 4,7 3,2 11 6 21 11 WSW 1032,9 4,1 60 0,0
14.02.2019 14:00:00 5,4 3,5 6,3 7,2 4,6 4,7 3,1 20 11 23 12 WSW 1033,4 3,4 37 0,0
14.02.2019 13:00:00 4,7 3,6 5,6 5,8 4,5 4,7 3,0 20 11 22 12 W 1033,7 3,0 0 0,0
14.02.2019 12:00:00 3,9 3,4 4,6 5,1 4,4 4,7 2,9 13 7 26 14 W 1033,8 1,8 0 0,0
14.02.2019 11:00:00 4,3 3,9 4,7 4,8 4,3 4,7 2,9 23 12 27 15 WSW 1033,4 1,6 0 0,0
14.02.2019 10:00:00 4,1 3,8 4,4 4,4 4,3 4,7 2,9 22 12 26 14 WSW 1033,2 0,7 0 0,2
14.02.2019 09:00:00 4,2 3,9 4,2 4,2 4,3 4,7 3,0 21 12 25 14 WSW 1033,6 0,7 0 0,0
14.02.2019 08:00:00 3,9 3,5 3,9 4,1 4,3 4,7 2,9 22 12 28 15 WSW 1033,0 1,3 0 0,0
14.02.2019 07:00:00 4,3 3,7 4,1 4,2 4,3 4,7 2,9 26 14 31 17 W 1032,6 1,9 0 0,0
14.02.2019 06:00:00 4,3 3,7 4,2 4,3 4,3 4,7 3,0 23 13 35 19 W 1032,1 2,4 0 0,0
14.02.2019 05:00:00 3,9 3,3 3,7 4,3 4,3 4,7 3,0 24 13 38 20 W 1031,9 2,9 0 0,0
14.02.2019 04:00:00 4,5 4,1 4,4 4,4 4,3 4,7 2,9 27 15 32 18 W 1031,5 3,7 0 0,0
14.02.2019 03:00:00 4,5 4,1 4,5 4,5 4,3 4,7 2,9 25 14 30 16 W 1031,5 4,0 0 0,0
14.02.2019 02:00:00 4,5 4,3 4,5 4,5 4,3 4,7 2,9 24 13 37 20 W 1031,5 1,2 0 0,1
14.02.2019 01:00:00 4,8 4,6 4,8 4,6 4,3 4,7 2,9 31 17 37 20 W 1030,9 0,4 0 0,0
14.02.2019 00:00:00 4,9 4,5 4,8 4,6 4,3 4,7 2,8 33 18 39 21 W 1030,4 1,0 0 0,0
13.02.2019 23:00:00 5,1 4,5 5,1 4,8 4,3 4,7 2,8 29 16 42 23 WNW 1030,4 4,4 0 0,0
13.02.2019 22:00:00 5,5 4,9 5,5 4,8 4,2 4,7 2,8 35 19 41 22 WNW 1030,1 5 0 0,0
13.02.2019 21:00:00 5,8 5,2 5,9 4,7 4,2 4,7 2,8 39 21 45 24 WNW 1029,6 4,5 0 0,0
13.02.2019 20:00:00 5,1 4,5 5,2 4,6 4,2 4,7 2,8 33 18 40 21 W 1029,5 4,7 0 0,0
13.02.2019 19:00:00 5,1 4,2 5,1 4,4 4,2 4,7 2,8 35 19 40 21 W 1029,0 6 0 0,0
13.02.2019 18:00:00 4,9 4,0 4,8 4,4 4,1 4,7 2,8 30 16 49 26 W 1028,8 8 0 0,0
13.02.2019 17:00:00 5,0 4,2 4,9 4,6 4,1 4,7 2,8 44 24 51 28 W 1027,9 9 0 0,0
13.02.2019 16:00:00 5,0 3,9 4,8 4,9 4,0 4,7 2,8 40 22 49 27 W 1027,6 10 22 0,0
13.02.2019 15:00:00 4,8 3,7 5,3 5,1 3,9 4,7 2,8 28 15 34 18 W 1027,8 11 41 0,0
13.02.2019 14:00:00 4,8 3,7 4,9 4,8 3,8 4,7 2,8 29 16 39 21 W 1027,6 11 0 0,0
13.02.2019 13:00:00 4,7 3,9 5,0 4,8 3,7 4,7 2,8 33 18 40 22 W 1027,0 7 0 0,0
13.02.2019 12:00:00 4,6 3,7 5,0 4,5 3,5 4,7 2,7 32 18 40 22 W 1026,5 9 0 0,0
13.02.2019 11:00:00 4,7 4,0 4,9 4,2 3,4 4,7 2,5 26 14 45 24 W 1026,3 7 0 0,0
13.02.2019 10:00:00 4,4 3,8 4,6 4,1 3,3 4,7 2,5 42 23 66 36 W 1025,1 4,9 0 0,0
13.02.2019 09:00:00 5,0 4,1 5,0 3,8 3,2 4,7 2,6 53 29 63 34 W 1024,5 7 0 0,0
13.02.2019 08:00:00 4,5 3,7 4,4 3,5 3,1 4,7 2,5 38 21 44 24 W 1024,6 4,3 0 0,0
13.02.2019 07:00:00 4,5 3,7 4,3 3,4 3,0 4,7 2,5 37 20 48 26 W 1024,5 4,5 0 0,0
13.02.2019 06:00:00 4,0 3,1 3,9 3,0 2,9 4,7 2,5 37 20 44 24 W 1024,1 5 0 0,0
13.02.2019 05:00:00 3,7 2,8 3,6 2,8 2,9 4,7 2,4 40 22 50 27 W 1024,7 4,4 0 0,0
13.02.2019 04:00:00 3,7 2,3 3,6 2,6 2,8 4,7 2,4 44 24 51 28 WSW 1024,5 6 0 0,0
13.02.2019 03:00:00 3,5 2,0 3,3 2,4 2,8 4,7 2,3 34 19 41 22 WSW 1025,2 9 0 0,0
13.02.2019 02:00:00 3,3 1,6 2,9 2,2 2,8 4,7 2,3 30 16 40 22 SW 1026,1 15 0 0,0
13.02.2019 01:00:00 2,7 1,1 2,1 2,0 2,8 4,7 2,2 28 15 32 18 SW 1026,7 30 0 0,1
13.02.2019 00:00:00 2,3 1,1 1,8 1,9 2,8 4,7 2,1 23 12 33 18 SW 1027,7 11 0 0,7
12.02.2019 23:00:00 2,2 -0,2 1,6 1,8 2,9 4,7 2,1 27 14 33 18 W 1028,2 11 0 0,0
12.02.2019 22:00:00 2,3 -0,2 2,0 1,7 3,0 4,7 2,2 25 13 29 15 W 1028,0 54 0 0,0
12.02.2019 21:00:00 2,2 -1,0 1,8 1,6 3,2 4,7 2,2 26 14 32 17 W 1028,2 62 0 0,0
12.02.2019 20:00:00 2,0 -0,3 1,2 1,7 3,3 4,7 2,3 25 14 33 18 W 1028,2 47 0 0,0
12.02.2019 19:00:00 2,4 -0,5 1,8 2,0 3,5 4,7 2,3 27 15 32 17 W 1028,1 53 0 0,0
12.02.2019 18:00:00 2,7 -0,8 2,2 2,4 3,7 4,7 2,4 31 17 39 21 W 1028,0 62 3 0,0
12.02.2019 17:00:00 2,9 -1,0 2,4 3,3 3,7 4,7 2,4 27 14 34 19 W 1027,4 70 34 0,0
12.02.2019 16:00:00 3,3 -0,8 3,2 4,7 3,6 4,7 2,4 24 13 32 17 WNW 1027,3 43 54 0,0
12.02.2019 15:00:00 4,3 -0,8 4,7 5,4 3,3 4,7 2,4 26 14 34 18 WNW 1026,8 34 60 0,0
12.02.2019 14:00:00 4,6 -0,7 6,3 6,0 2,9 4,7 2,3 31 17 39 21 NW 1026,4 39 60 0,0
12.02.2019 13:00:00 4,3 -0,6 6,1 5,4 2,5 4,7 2,3 32 17 37 20 NW 1025,7 30 60 0,0
12.02.2019 12:00:00 4,3 -0,3 5,4 4,0 2,2 4,7 2,3 29 16 41 22 NNW 1025,5 28 60 0,0
12.02.2019 11:00:00 3,7 -0,4 3,7 2,2 2,0 4,7 2,2 35 19 43 23 NNW 1024,5 41 60 0,0
12.02.2019 10:00:00 3,2 -0,5 2,7 1,1 2,0 4,7 2,1 38 20 44 24 NW 1023,6 33 60 0,0
12.02.2019 09:00:00 2,6 -0,6 1,6 0,6 2,0 4,7 2,1 38 21 48 26 NW 1022,6 39 60 0,0
12.02.2019 08:00:00 2,0 -0,7 1,1 0,3 2,1 4,7 2,1 40 22 49 27 NW 1021,6 41 0 0,0
12.02.2019 07:00:00 1,7 -0,8 1,0 0,2 2,2 4,7 2,2 40 22 54 29 NW 1020,3 42 0 0,0
12.02.2019 06:00:00 1,9 -0,9 0,8 0,3 2,3 4,7 2,2 41 22 53 28 NW 1019,7 46 0 0,0
12.02.2019 05:00:00 1,8 -0,7 0,6 0,4 2,4 4,7 2,2 37 20 45 25 NW 1019,0 40 0 0,0
12.02.2019 04:00:00 1,7 -0,7 1,1 0,7 2,5 4,7 2,2 35 19 54 29 NW 1018,4 38 0 0,0
12.02.2019 03:00:00 2,1 -0,8 1,5 0,8 2,6 4,7 2,3 42 23 56 30 NW 1017,8 36 0 0,0
12.02.2019 02:00:00 2,0 -1,0 1,5 0,8 2,7 4,7 2,3 44 24 55 30 NW 1017,1 47 0 0,0
12.02.2019 01:00:00 2,2 -1,4 1,6 1,0 2,8 4,7 2,4 44 24 58 31 NW 1016,8 49 0 0,0
12.02.2019 00:00:00 2,2 -1,3 1,7 1,2 2,9 4,7 2,5 45 24 58 31 WNW 1015,9 49 0 0,0
11.02.2019 23:00:00 2,6 -0,8 2,0 1,3 3,0 4,7 2,5 41 22 53 28 WNW 1014,9 55 0 0,0
11.02.2019 22:00:00 2,7 -1,0 2,2 1,3 3,2 4,7 2,5 41 22 50 27 WNW 1014,8 56 0 0,0
11.02.2019 21:00:00 2,7 -1,4 2,1 1,3 3,3 4,7 2,6 46 25 63 34 NW 1014,3 65 0 0,0
11.02.2019 20:00:00 2,8 -1,2 1,9 1,6 3,5 4,7 2,6 48 26 78 42 NW 1013,5 52 0 0,0
11.02.2019 19:00:00 3,0 -0,8 1,9 2,0 3,7 4,6 2,8 56 30 71 38 NW 1011,9 45 0 0,0
11.02.2019 18:00:00 3,0 -0,4 2,0 2,6 3,8 4,6 2,8 54 29 69 37 NW 1010,2 42 0 0,0
11.02.2019 17:00:00 3,3 -0,1 3,1 3,0 3,8 4,6 2,8 58 31 81 44 NW 1008,7 52 0 0,0
11.02.2019 16:00:00 3,2 0,1 3,1 3,2 3,9 4,6 2,7 63 34 79 43 NW 1006,9 45 0 0,0
11.02.2019 15:00:00 3,5 0,7 3,4 3,3 3,9 4,6 2,7 54 29 74 40 NW 1005,4 44 0 0,0

tt = Température de l'air
td = dewpoint
tt 5cm = Température de l'air 5cm
tt -5cm = Température de l'air -5cm
tt -20cm = Température de l'air -20cm
tt -100cm = Température de l'air -100cm
tw = water temperature
ff = Vitesse du vent
fx = gusts
dd = Direction du vent
ppp = reduced air pressure
vv = visibility
sd = Ensoleillement
rr = Quantités de précipitations

stations d'obs. à proximité